Regional Weather Roundup
Issued by NWS Nashville, TN

Home | Current Version | Previous Version | Text Only | Print | Product List | Glossary On
Versions: 1 2 3 4 5 6 7 8 9 10 11 12 13 14 15 16 17 18 19 20 21 22 23 24 25 26 27
000
ASUS44 KOHX 220910
RWROHX
MIDDLE TENNESSEE HOURLY WEATHER ROUNDUP
NATIONAL WEATHER SERVICE NASHVILLE TN
300 AM CST SUN JAN 22 2017

NOTE: "FAIR" INDICATES FEW OR NO CLOUDS BELOW 12,000 FEET WITH
NO SIGNIFICANT WEATHER AND/OR OBSTRUCTIONS TO VISIBILITY.

* THESE REPORTS ARE NOT UNDER NWS QUALITY CONTROL AND MAY NOT
  REPORT WEATHER SUCH AS PRECIPITATION AND FOG.


TNZ005>011-023>034-057-059-062>066-078-080-221000
...NORTHERN MIDDLE TENNESSEE...

CITY           SKY/WX    TMP DP  RH WIND       PRES   REMARKS
CLARKSVILLE    CLOUDY    52  48  86 E3        29.50S
CROSSVILLE     CLOUDY    49  48  97 SE5       29.57R
GALLATIN       CLEAR     54  50  87 CALM      29.54S
DICKSON        CLOUDY    52  50  93 E3        29.48F
LEBANON        CLOUDY    52  49  89 E3        29.50R
NASHVILLE      CLOUDY    53  49  86 NE3       29.50S
PORTLAND       CLEAR     54  50  87 SE5       29.51S
SMYRNA         CLOUDY    51  50  96 E3        29.51S
SPRINGFIELD    PTCLDY    55  50  82 CALM      29.50R
WEST NASHVILLE CLEAR     52  50  93 NE5       29.49F
$$
TNZ056-058-060-061-075>077-079-093>097-221000
...SOUTHERN MIDDLE TENNESSEE...

CITY           SKY/WX    TMP DP  RH WIND       PRES   REMARKS
COLUMBIA       PTCLDY   N/A N/A N/A N5        29.47R
MCMINNVILLE    PTCLDY    55  55 100 SE6       29.52S
SHELBYVILLE    MOCLDY    57  55  94 SE7       29.50S
TULLAHOMA      CLOUDY    54  54 100 SE7       29.51S
WINCHESTER     MOCLDY    55  54  94 SE12      29.49F
$$


...KEY TO REMARKS...
VSB - VISIBILITY IN MILES
WCI - WIND CHILL INDEX
HX  - HEAT INDEX





USA.gov is the U.S. government's official web portal to all federal, state and local government web resources and services.